Find Kosmos-1486

NORAD ID: 14240 Int'l Des: 1983-079 Owner: GUKOS Country: SU operational
LEOCIRCULAR

Current View

Loading 3D Globe...

About Kosmos-1486

Description loading...

Upcoming Passes

Passes for default location (London). Set your location on the main map for personalized predictions.

Altitude History

Loading altitude history...

Two-Line Element Set

1 14240U 83079A 26151.11587793 .00000153 00000-0 62825-4 0 9990
2 14240 74.0574 82.2587 0013490 358.4649 103.9981 14.34865336239309
Epoch: May 31, 2026 • Age: 11 hours

Current Status

Altitude 768.0 km
Velocity 7.48 km/s
Sub-Earth Point 11.04°N, 15.58°W
Launch Date Aug 3, 1983
Age 42.8 years
Type other

Technical Details

Classification Payload
Mass 800.00 kg
Dry Mass 800.00 kg
Total Mass 800.00 kg
Length 3.00 m
Diameter 2.00 m
Span 3.00 m
Shape Cyl
Manufacturer NPOPM
Bus Type Strela-2M
Phase Status In Orbit
Owner/State GUKOS/SU

Most Searched